Powrót do katalogu

CZ-6A DEB

AktywnySSO
NORAD 56266·DEBRIS·🇨🇳 China

Wystrzelony Nov 11, 2022 z Taiyuan Satellite Launch Center

Loading…

Następne Przeloty (najbliższe 24 godziny)

TLE

ŚwieżeSource: Space-Track

Epoka: Sep 14, 2026, 09:19 UTC

1 56266U 22151ACJ 26257.38865356 -.00000100  00000-0 -40681-4 0  9998
2 56266  98.9614 229.3493 0119147 193.4669 166.3304 13.93887582177458

Śledź CZ-6A DEB w czasie rzeczywistym z AllMySat

Download on the App Store